Back to catalog

STARLINK-36887

AliveCommunicationsVLEO
NORAD 67950·PAYLOAD·🇺🇸 United States

Launched Feb 24, 2026 from Vandenberg Space Force Base

Loading…

Next Passes (next 24 hours)

TLE

FreshSource: CelesTrak SupGP

Epoch: Sep 15, 2026, 04:19 UTC

1 67950C 26037U   26258.18034722  .00003280  00000+0  11884-3 0  2580
2 67950  43.0037 200.9887 0001398 272.9551 182.7246 15.27569301    12

Track STARLINK-36887 in real time with AllMySat

Download on the App Store